Star Vega — 3EVB3 — position and weather

sailwx.info

Track history (hours):
 
Tides and Currents Weather Stations Pressure Air Temp Water Temp Dewpoint Dewpoint Depression Visibility Wind Speed Wind Dir Waves Ship Positions

Star Vega

Last reported at 2014-Jul-20 21:09 UTC. Time now 2014-Jul-22 19:35 UTC.
Position N 36°00' E 015°32'.

Length 189 m; draft 10.4 m.

Type: Cargo ship. MMSI: 354143000.

Date/timePositionNaut miles runAvg speedWind from/ knotsBaromVisibWave heightAir tempDewpointWater temp
2014-Jul-20 21:09N 36°00' E 015°32'610.3
2014-Jul-20 20:33N 36°03' E 015°25'1110.5
2014-Jul-20 19:33N 36°07' E 015°13'1110.8
2014-Jul-20 18:33N 36°11' E 015°01'1110.8
2014-Jul-20 17:33N 36°15' E 014°48'1110.8
2014-Jul-20 16:33N 36°19' E 014°36'1110.6
2014-Jul-20 15:33N 36°22' E 014°23'1110.5
2014-Jul-20 14:33N 36°25' E 014°11'1110.8
2014-Jul-20 13:33N 36°29' E 013°58'1110.9
2014-Jul-20 12:33N 36°32' E 013°45'1110.7
2014-Jul-20 11:30N 36°36' E 013°32'1210.7
2014-Jul-20 10:21N 36°40' E 013°17'910.9
2014-Jul-20 09:33N 36°42' E 013°07'1611.3
2014-Jul-20 08:06N 36°48' E 012°48'1811.4
2014-Jul-20 06:33N 36°53' E 012°27'259 9.9
2014-Jul-19 04:20N 37°15' E 007°03'1110.7
2014-Jul-19 03:18N 37°14' E 006°49'810.3
2014-Jul-19 02:32N 37°14' E 006°39'19 9.3
2014-Jul-19 00:33N 37°14' E 006°16'9 9.0
2014-Jul-18 23:33N 37°14' E 006°05'10 9.6
2014-Jul-18 22:33N 37°13' E 005°53'10 9.9
2014-Jul-18 21:33N 37°13' E 005°40'1010.0
2014-Jul-18 20:33N 37°13' E 005°28'1010.2
2014-Jul-18 19:32N 37°12' E 005°15'1210.4
2014-Jul-18 18:21N 37°12' E 004°59'1210.5
2014-Jul-18 17:12N 37°12' E 004°44'910.3
2014-Jul-18 16:22N 37°12' E 004°33'1410.5
2014-Jul-18 15:04N 37°12' E 004°16'1610.4
2014-Jul-18 13:33N 37°10' E 003°57'1010.3
2014-Jul-18 12:33N 37°09' E 003°44'1010.3
2014-Jul-18 11:33N 37°07' E 003°31'1410.6
2014-Jul-18 10:12N 37°05' E 003°13'1111.1
2014-Jul-18 09:15N 37°03' E 003°00'811.5
2014-Jul-18 08:33N 37°02' E 002°50'3411.3
2014-Jul-18 05:34N 36°56' E 002°09'1411.1
2014-Jul-18 04:19N 36°54' E 001°52'910.7
2014-Jul-18 03:29N 36°53' E 001°40'1111.5
2014-Jul-18 02:32N 36°51' E 001°27'1210.6
2014-Jul-18 01:26N 36°49' E 001°13'439 9.7
2014-Jul-16 04:12N 36°15' W 007°52'16 8.3
2014-Jul-16 02:20N 36°19' W 008°11'810.4
2014-Jul-16 01:34N 36°21' W 008°20'1110.5
2014-Jul-16 00:28N 36°24' W 008°34'1010.4
2014-Jul-15 23:33N 36°27' W 008°45'1010.3
2014-Jul-15 22:34N 36°30' W 008°57'1010.3
2014-Jul-15 21:33N 36°33' W 009°09'10 9.9
2014-Jul-15 20:33N 36°37' W 009°21'1110.9
2014-Jul-15 19:33N 36°46' W 009°30'1210.2
2014-Jul-15 18:19N 36°57' W 009°36'910.9
2014-Jul-15 17:32N 37°06' W 009°38'1111.4
2014-Jul-15 16:33N 37°16' W 009°41'1111.0
2014-Jul-15 15:33N 37°27' W 009°44'1110.9
2014-Jul-15 14:34N 37°38' W 009°47'2211.1
2014-Jul-15 12:34N 37°59' W 009°54'1211.3
2014-Jul-15 11:32N 38°10' W 009°57'2311.3
2014-Jul-15 09:32N 38°33' W 010°03'1111.1
2014-Jul-15 08:33N 38°43' W 010°05'  
2014-Jul-11 13:30N 53°33' W 003°52'1112.0
2014-Jul-11 12:33N 53°33' W 003°33'10 9.9
2014-Jul-11 11:33N 53°32' W 003°16'10 5.2
2014-Jul-11 09:34N 53°27' W 003°01'0 0.1
2014-Jul-11 06:14N 53°27' W 003°01'0 0.0
2014-Jul-11 05:33N 53°27' W 003°01'0 0.0
2014-Jul-11 04:33N 53°27' W 003°01'0 0.0
2014-Jul-11 03:33N 53°27' W 003°01'0 0.0
2014-Jul-11 02:33N 53°27' W 003°01'0 0.0
2014-Jul-11 01:33N 53°27' W 003°01'0 0.0
2014-Jul-11 00:33N 53°27' W 003°01'0 0.0
2014-Jul-10 23:33N 53°27' W 003°01'0 0.0
2014-Jul-10 22:33N 53°27' W 003°01'0 0.0
2014-Jul-10 21:33N 53°27' W 003°01'  
Track history (hours):
 
Tides and Currents Weather Stations Pressure Air Temp Water Temp Dewpoint Dewpoint Depression Visibility Wind Speed Wind Dir Waves Ship Positions

Star Vega

Last reported at 2014-Jul-20 21:09 UTC. Time now 2014-Jul-22 19:35 UTC.
Position N 36°00' E 015°32'.

Length 189 m; draft 10.4 m.

Type: Cargo ship. MMSI: 354143000.

Date/timePositionNaut miles runAvg speedWind from/ knotsBaromVisibWave heightAir tempDewpointWater temp
2014-Jul-20 21:09N 36°00' E 015°32'610.3
2014-Jul-20 20:33N 36°03' E 015°25'1110.5
2014-Jul-20 19:33N 36°07' E 015°13'1110.8
2014-Jul-20 18:33N 36°11' E 015°01'1110.8
2014-Jul-20 17:33N 36°15' E 014°48'1110.8
2014-Jul-20 16:33N 36°19' E 014°36'1110.6
2014-Jul-20 15:33N 36°22' E 014°23'1110.5
2014-Jul-20 14:33N 36°25' E 014°11'1110.8
2014-Jul-20 13:33N 36°29' E 013°58'1110.9
2014-Jul-20 12:33N 36°32' E 013°45'1110.7
2014-Jul-20 11:30N 36°36' E 013°32'1210.7
2014-Jul-20 10:21N 36°40' E 013°17'910.9
2014-Jul-20 09:33N 36°42' E 013°07'1611.3
2014-Jul-20 08:06N 36°48' E 012°48'1811.4
2014-Jul-20 06:33N 36°53' E 012°27'259 9.9
2014-Jul-19 04:20N 37°15' E 007°03'1110.7
2014-Jul-19 03:18N 37°14' E 006°49'810.3
2014-Jul-19 02:32N 37°14' E 006°39'19 9.3
2014-Jul-19 00:33N 37°14' E 006°16'9 9.0
2014-Jul-18 23:33N 37°14' E 006°05'10 9.6
2014-Jul-18 22:33N 37°13' E 005°53'10 9.9
2014-Jul-18 21:33N 37°13' E 005°40'1010.0
2014-Jul-18 20:33N 37°13' E 005°28'1010.2
2014-Jul-18 19:32N 37°12' E 005°15'1210.4
2014-Jul-18 18:21N 37°12' E 004°59'1210.5
2014-Jul-18 17:12N 37°12' E 004°44'910.3
2014-Jul-18 16:22N 37°12' E 004°33'1410.5
2014-Jul-18 15:04N 37°12' E 004°16'1610.4
2014-Jul-18 13:33N 37°10' E 003°57'1010.3
2014-Jul-18 12:33N 37°09' E 003°44'1010.3
2014-Jul-18 11:33N 37°07' E 003°31'1410.6
2014-Jul-18 10:12N 37°05' E 003°13'1111.1
2014-Jul-18 09:15N 37°03' E 003°00'811.5
2014-Jul-18 08:33N 37°02' E 002°50'3411.3
2014-Jul-18 05:34N 36°56' E 002°09'1411.1
2014-Jul-18 04:19N 36°54' E 001°52'910.7
2014-Jul-18 03:29N 36°53' E 001°40'1111.5
2014-Jul-18 02:32N 36°51' E 001°27'1210.6
2014-Jul-18 01:26N 36°49' E 001°13'439 9.7
2014-Jul-16 04:12N 36°15' W 007°52'16 8.3
2014-Jul-16 02:20N 36°19' W 008°11'810.4
2014-Jul-16 01:34N 36°21' W 008°20'1110.5
2014-Jul-16 00:28N 36°24' W 008°34'1010.4
2014-Jul-15 23:33N 36°27' W 008°45'1010.3
2014-Jul-15 22:34N 36°30' W 008°57'1010.3
2014-Jul-15 21:33N 36°33' W 009°09'10 9.9
2014-Jul-15 20:33N 36°37' W 009°21'1110.9
2014-Jul-15 19:33N 36°46' W 009°30'1210.2
2014-Jul-15 18:19N 36°57' W 009°36'910.9
2014-Jul-15 17:32N 37°06' W 009°38'1111.4
2014-Jul-15 16:33N 37°16' W 009°41'1111.0
2014-Jul-15 15:33N 37°27' W 009°44'1110.9
2014-Jul-15 14:34N 37°38' W 009°47'2211.1
2014-Jul-15 12:34N 37°59' W 009°54'1211.3
2014-Jul-15 11:32N 38°10' W 009°57'2311.3
2014-Jul-15 09:32N 38°33' W 010°03'1111.1
2014-Jul-15 08:33N 38°43' W 010°05'  
2014-Jul-11 13:30N 53°33' W 003°52'1112.0
2014-Jul-11 12:33N 53°33' W 003°33'10 9.9
2014-Jul-11 11:33N 53°32' W 003°16'10 5.2
2014-Jul-11 09:34N 53°27' W 003°01'0 0.1
2014-Jul-11 06:14N 53°27' W 003°01'0 0.0
2014-Jul-11 05:33N 53°27' W 003°01'0 0.0
2014-Jul-11 04:33N 53°27' W 003°01'0 0.0
2014-Jul-11 03:33N 53°27' W 003°01'0 0.0
2014-Jul-11 02:33N 53°27' W 003°01'0 0.0
2014-Jul-11 01:33N 53°27' W 003°01'0 0.0
2014-Jul-11 00:33N 53°27' W 003°01'0 0.0
2014-Jul-10 23:33N 53°27' W 003°01'0 0.0
2014-Jul-10 22:33N 53°27' W 003°01'0 0.0
2014-Jul-10 21:33N 53°27' W 003°01'  

Dump ship's entire track history